Weather in Mocoa

Colombia     1°08′52″N   76°38′53″W
temp.,
°C
wind,
m/s
gust,
m/s
humid.,
%
clouds,
%
prec.,
mm/h
press.,
hPa
HPBL,
m
26 may, thu
thu2601:00+13w119598 0.4 101825
04:00+13ssw0198100 0.3 101765
07:00+13nnw0099100 4.4 101987
10:00+13ese12100100 5.1 1021137
13:00+13ese11100100 9.5 1019165
16:00+13se12100100 3.1 1017143
19:00+13nw00100100 5.4 101985
22:00+13wsw0198100 1.0 102075
27 may, fri
fri2701:00+12w1197100 2.7 101977
04:00+12w1196100 0.1 101830
07:00+12wnw119799 0.5 101966
10:00+15se128596 0.3 1020378
13:00+15ese119158 1.6 1018279
16:00+15e119099 1.1 1016250
19:00+13wnw2195100 1.3 101824
22:00+12wnw2189100 0.1 102023
28 may, sat
sat2801:00+13w218599 0.1 101826
04:00+11wnw2187100 0.0 101726
07:00+13w1185100 0.1 101819
10:00+13sse0198100 0.8 1020107
13:00+14ese1296100 1.3 1017346
16:00+13ne0197100 0.6 1015109
19:00+13nw219495 0.7 101632
22:00+13wnw119285 0.1 101817
29 may, sun
sun2901:00+12w1193100 0.1 101724
04:00+12wnw1196100 0.3 101634
07:00+13ssw1194100 0.4 101760
10:00+13ese119677 0.2 1019180
13:00+15se229299 0.9 1016487
16:00+15ese119691 0.8 1014272
19:00+13nnw0099100 1.3 101649
22:00+12wnw119890 0.5 101817
30 may, mon
mon3001:00+12wnw119777 0.8 101725
04:00+12wnw119796 0.1 101625
07:00+13wnw119799 0.4 101827
10:00+14ese1197100 0.6 1019258
13:00+14se119777 1.9 1017184
16:00+14ese1097100 0.6 1015201
19:00+13nw1198100 0.8 101729
22:00+12wnw219699 0.0 101831